Flag for U.S.A. Weather past 2 weeks in Torrance, California, U.S.A.

Now
69 °F

Overcast.


Feels Like: 69 °F
Forecast: 67 / 74 °F
Wind: 5 mph from Southwest

Location: Hawthorne Municipal Airport

Current Time: Sep 3, 2015 at 12:41:21 AM

Latest Report: Sep 2, 2015 at 11:53 PM


Visibility: 10 mi

Pressure: 29.94 "Hg

Humidity: 70%

Dew point: 59 °F

Location of TorranceLocation

Historic Weather in Torrance — Graph

°F

Torrance temperature yesterday

Maximum temperature yesterday: 76 °F (at 1:53 PM)
Minimum temperature yesterday: 69 °F (at 9:53 PM)
Average temperature yesterday: 72 °F

Past Weeks' High & Low Weather Summary

 TemperatureHumidityPressure
High91 °F (Aug 28, 12:53 PM)88% (Aug 26, 3:53 AM)29.99 "Hg (Aug 26, 3:53 AM)
Low68 °F (Aug 23, 2:53 AM)33% (Aug 28, 12:53 PM)29.81 "Hg (Aug 28, 6:53 PM)
Average75 °F69%29.90 "Hg
* Reported Aug 18 10:53 PM — Sep 2 10:53 PM, Torrance, Weather by CustomWeather, © 2015

Note: Actual official high and low records may vary slightly from our data, if they occured in-between our weather recording intervals... More about our weather records

Advertising

Torrance weather history for previous 24 hours

 ConditionsComfort  
Time TempWeatherWind HumidityBarometerVisibility
10:53 PM
Wed, Sep 2
69 °FPassing clouds.3 mph73%29.93 "Hg10 mi
9:53 PM69 °FClear.6 mph73%29.93 "Hg10 mi
8:53 PM70 °FClear.8 mph71%29.91 "Hg10 mi
7:53 PM70 °FSunny.8 mph71%29.89 "Hg10 mi
6:53 PM71 °FSunny.9 mph68%29.88 "Hg10 mi
5:53 PM73 °FSunny.13 mph64%29.89 "Hg10 mi
3:53 PM75 °FSunny.14 mph58%29.90 "Hg10 mi
2:53 PM75 °FSunny.12 mph58%29.92 "Hg10 mi
1:53 PM76 °FSunny.13 mph56%29.94 "Hg10 mi
11:53 AM75 °FMostly cloudy.10 mph62%29.96 "Hg10 mi
6:53 AM71 °FOvercast.5 mph68%29.96 "Hg10 mi
5:53 AM71 °FOvercast.5 mph66%29.95 "Hg10 mi
4:53 AM71 °FOvercast.7 mph66%29.94 "Hg10 mi
3:53 AM71 °FOvercast.5 mph68%29.94 "Hg10 mi
2:53 AM71 °FOvercast.7 mph66%29.95 "Hg10 mi
1:53 AM71 °FOvercast.No wind73%29.95 "Hg10 mi
12:53 AM71 °FOvercast.No wind73%29.96 "Hg10 mi
Weather by CustomWeather, © 2015

See weather overviewHow to use our weather pages